THOR ABLESTAR DEB, 5786

Orbit data source: Space-Track

THOR ABLESTAR DEB, 5786 is space debris in LEO originally from a launch on Thu, 29 Jun 1961 UTC launched from the Air Force Eastern Test Range (AFETR). Debris objects in space refer to the collection of defunct objects orbiting the Earth. Examples of debris include non-operational satellites, rocket bodies, and fragments generated from explosions, collisions, or faulty payload assembly.

Loading next visibility...
Identifier
5786, 1961-015KA
Orbit
LEO
Country
Flag of USUS
Related business
Manufacturer
Unknown
Mission
Spacecraft
Bus & Motor
Unknown
Mass
Unknown
Launch date (UTC)
1961-06-29 (65 years ago)
Launch vehicle
Unknown
Launch site
Air Force Eastern Test Range (AFETR)
Object type
Payload
Rocket body
Debris
Shape & HBR
Unknown shape, 0.1 m
Radar Cross Section
Medium (>0.1 m² and <1 m²)

Expand to show TLE details & history
Last TLE update: 2 days ago

TLE from 2 days ago
0 THOR ABLESTAR DEB
1 05786U 61015KA  26172.76242074  .00000596  00000-0  41256-3 0  9990
2 05786  67.1217 307.2265 0116789 148.9548 211.8511 14.02336992275202
Epoch: 2026-06-21T18:17Z
TLE epoch observation values (Epoch: 2026-06-21T18:17:53.151Z)
Latitude
-0.00006°
Longitude
122.79697°
Altitude
960.167 km
Speed
7.335 km/s
True Right ascension
20h 28m 54s
True Declination
0° 00' 00"
Sunlit
Object was in full shadow at epoch
Visualization orbit readout
Latitude
Unknown
Longitude
Unknown
Altitude
Unknown
Speed
Unknown
Apparent Right ascension
Unknown
Apparent Declination
Unknown
Sunlit
N/A
Visualization observer readout
Local Sidereal Time
14:48:43
Azimuth
Unknown
Elevation
Unknown
Doppler factor
Unknown
Orbital elements
Apogee altitude
968.876 km
Perigee altitude
799.247 km
Semi-major axis
7,262.198 km
Eccentricity
0.01168
Inclination
67.1217°
RAAN
307.2265°
Arg. of periapsis
148.9548°
True anomaly
211.15353°
Mean anomaly
211.8511°
Eccentric anomaly
211.50145°
Mean motion
3.50704 °/min
Orbital period
102.65 mins
BSTAR
0.00041256
Loading maneuver chart data...
Computing Atmospheric mass density...

Documentation

Showing up to 5 results
|